Regional Weather Roundup
Issued by NWS Tiyan, Guam

Home | Current Version | Previous Version | Text Only | Print | Product List | Glossary On
Versions: 1 2 3 4 5 6 7 8 9 10 11 12 13 14 15 16 17 18 19 20 21 22 23 24 25 26 27 28 29 30 31 32 33 34 35 36 37 38 39 40 41 42 43 44 45 46 47 48 49 50
000
ASGM40 PGUM 240110
RWRGUM
WEATHER ROUNDUP FOR THE MARIANAS
NATIONAL WEATHER SERVICE TIYAN GU
1100 AM CHST TUE APR 24 2018

GUZ001>004-240200-
MARIANA ISLANDS-

CITY           SKY/WX    TMP DP  RH WIND       PRES   REMARKS
GUAM AIRPORT   MOSUNNY   90  75  62 E15       29.83F HX 100
ANDERSEN AFB   PTSUNNY   84  77  79 NE12      29.83F HX  94
ROTA AIRPORT   PTSUNNY   82  77  83 NE15      29.82F HX  91
TINIAN AP      MOSUNNY   82  75  78 E17       29.81F
SAIPAN AP      MOSUNNY   86  79  79 E17       29.83F HX  99

$$




USA.gov is the U.S. government's official web portal to all federal, state and local government web resources and services.